03:16
Airports
History
Links
Donate
Help keep this website running!
PayPal
Bitcoin
This page is community maintained. The information is intended for PC simulator navigation or reference.
Always use approved charts for navigation.
CYSE
Squamish
Squamish (CYSE)
Squamish, British Columbia, Canada
(U)
Lat/Lng:49° 46' 32.52" N / 123° 9' 25.93" W
49.7757 / -123.157204
Elevation:171'ft / 52mMSL
ID / ICAO:CYSE
Runways:1
Longest:14-32
Asphalt 724m / 2,376ft
Nearby Weather03:00 GMT 2018-01-20
Nearby weather at CYVR, Vancouver Intl located 40.2 nautical miles from CYSE
Altimeter: 29.79
Visibility: 15.0 statute miles
Wind: 16 knots (from 150°)
Temp: 7°c / 45°f
Humidity: 87.1%

METAR: CYVR 200300Z 15016G21KT 15SM -RA FEW017 OVC032 07/05 A2979 RMK SC1SC7 SLP089

(Powered by phpweather)
Nearby VORs <50NM
Nearby NDBs
Runway 14 / 32
Dimensions:724.2 x 22.9m 2376' x 75'ft
Surface:Asphalt
Runway 14 [A]Runway 32 [B]
Heading:160°TH 340°TH
Lat:
Lng:
49° 46' 43.72"N
123° 9' 31.91"W
49° 46' 21.32"N
123° 9' 19.96"W
User Notes and Comments
49° 46' 32.52" N / 123° 9' 25.93" W
Distance To
Airport ID:
Nearby Airports
(U) Sechelt Gibsons 33.4 NM
AP3 SW 228°
(C) Vancouver Intl 40.2 NM
CYVR ( WX ) S 181°
(U) PEMBERTON 40.9 NM
CYPS NNE 27°
(C) Pitt Meadows 43.5 NM
CYPK SSE 152°
4 Harrison Lake Logging Camp 45.0 NM
SCHL E 92°
(C) Stave Lake 47.3 NM
SCSL ESE 118°
(C) Vancouver/boundary Bay 48.9 NM
CZBB S 172°
VFR Chart
Flight Planning at SkyVector.com